User: anonymous   Login
Location: Unspecified
(0.0000°N, 0.0000°E)
Time: 21:18:24
(UTC+00:00)
Language:

OPTUS D1 - Orbit

View from above orbital plane
View from above orbital plane
View from above satellite
View from above satellite

Ground track
Ground track

The orbit data is extracted from the following two-line orbital elements,

1 29495U 06043B   16176.75651860 -.00000114 +00000-0 +00000-0 0  9998
2 29495 000.0180 004.1973 0003426 091.5504 249.9268 01.00271571035577
Epoch (UTC): 24 June 2016 18:09:23
Eccentricity: 0.0003426
inclination: 0.0180°
perigee height: 35772 km
apogee height: 35801 km
right ascension of ascending node: 4.1973°
argument of perigee: 91.5504°
revolutions per day: 1.00271571
mean anomaly at epoch: 249.9268°
orbit number at epoch: 3557

The dashed part of the orbit path shows where the satellite is in the earth's shadow,  

DLR